Regional Weather Roundup
Issued by NWS

Home | Current Version | Previous Version | Graphics & Text | Print | Product List | Glossary On
Versions: 1 2 3 4 5 6 7 8 9 10 11 12 13 14 15 16 17 18 19 20 21 22 23 24 25 26 27 28 29 30 31 32 33 34 35 36 37 38 39 40 41 42 43 44 45 46 47 48 49 50
000
ASUS45 KSLC 261910
RWRUT

UTAH REGIONAL WEATHER ROUNDUP
NATIONAL WEATHER SERVICE SALT LAKE CITY UT
100 PM MDT TUE AUG 26 2014

UTZ001>011-023>025-262000-

NORTHERN UTAH

CITY           SKY/WX    TMP DP  RH WIND       PRES   REMARKS
HILL AFB       CLOUDY    73  51  46 N1        30.17F
LOGAN          SUNNY     73  53  49 VRB3      30.16F
OGDEN          MOSUNNY   75  51  43 VRB3      30.15F
PROVO AIRPORT  PTSUNNY   70  54  56 CALM      30.16F
SALT LAKE CITY PTSUNNY   75  51  43 W3        30.13F
VERNAL         CLOUDY    69  53  56 E3        30.23F
WENDOVER       SUNNY     73  41  31 E7        30.14F
HEBER CITY     DRIZZLE   64  50  59 CALM      30.21F
WEST JORDAN    SUNNY     75  55  50 SE3       30.16F

$$

UTZ012>022-026-027-262000-

SOUTHERN UTAH

CITY           SKY/WX    TMP DP  RH WIND       PRES   REMARKS
BRYCE CANYON   CLOUDY    61  40  45 S9        30.33F
CEDAR CITY     MOSUNNY   76  45  33 SW20G25   30.16F
MILFORD        PTSUNNY   78  46  32 SW8       30.12F
MOAB/CYNLANDS  MOSUNNY   80  49  33 SW7       30.12F
PRICE          CLOUDY    72  50  45 SE7       30.21F
ST GEORGE      MOCLDY    84  50  30 S12       30.04S
KANAB          PTSUNNY   61  48  63 S15G32    30.26R

$$

REGIONAL REPORTS     COLORADO/ARIZONA

CITY           SKY/WX    TMP DP  RH WIND       PRES   REMARKS
CRAIG, CO      PTSUNNY   66  50  56 NE5       30.28F
GRAND JUNCTION PTSUNNY   71  53  52 S5        30.18S
RIFLE          TSTM      61  53  75 W22G36    30.26R
MONTROSE       PTSUNNY   80  43  26 VRB3      30.22F
CORTEZ         MOSUNNY   81  46  29 SW13G20   30.24F
PAGE, AZ       PTSUNNY   82  46  28 VRB5      30.12F
GRAND CANYON   TSTM      63  57  81 SW6G14    30.30
KINGMAN        CLOUDY    75  60  59 SW6       30.10F
FLAGSTAFF      CLOUDY    69  51  52 SW12      30.32F

$$

REGIONAL REPORTS    NEVADA/IDAHO/WYOMING

CITY           SKY/WX    TMP DP  RH WIND       PRES   REMARKS
LAS VEGAS, NV  MOSUNNY   90  43  19 S16G23    29.93F
ELY            LGT RAIN  61  47  59 VRB5      30.19F
ELKO           SUNNY     72  41  32 CALM      30.15F
POCATELLO, ID  MOSUNNY   71  53  52 NW8       30.19F
BURLEY         SUNNY     70  51  51 E6        30.16F
EVANSTON, WY   MOSUNNY   67  45  45 SW9       30.30F
ROCK SPRINGS   PTSUNNY   65  41  41 VRB5      30.29F

$$


USA.gov is the U.S. government's official web portal to all federal, state and local government web resources and services.